Location: *
(12.5665°N, 8.3471°E)
Time: 00:44:56
(UTC+00:00)

Atlas Centaur 2 - Pass Details

Date: 23 September 2019
Orbit: 459 x 1311 km, 30.4° (Epoch: 13 October)

Event Time Altitude Azimuth Distance (km) Brightness Sun altitude
Exits shadow 04:02:43 15° 314° (NW) 2,363 4.1 -18.6°
Maximum altitude 04:08:14 55° 28° (NNE) 1,316 3.3 -17.3°
Drops below altitude 10° 04:16:07 10° 104° (ESE) 3,216 6.4 -15.4°
Sets 04:19:18 0° 108° (ESE) 4,244 7.2 -14.6°
